Location: La Brionne
(46.1728°N, 1.7849°E)
Time: 07:51:23
(UTC+00:00)

ALOS 2 - Pass Details

Date: 16 June 2021
Orbit: 630 x 632 km, 97.9° (Epoch: 31 July)

Event Time Altitude Azimuth Distance (km) Brightness Sun altitude
Exits shadow 23:49:18 38° 230° (SW) 965 3.2 -20.4°
Maximum altitude 23:50:10 43° 261° (W) 889 3.2 -20.4°
Drops below altitude 10° 23:54:23 10° 334° (NNW) 2,024 6.1 -20.4°
Sets 23:56:42 0° 341° (NNW) 2,937 7.3 -20.4°
